BVR114 GMMN-LIMC

Flight info

Callsign BVR114
Flight time N/A
Altitude 40000
Route TOLSI UG5 ROMSO UM985 BARPA M985 PIMOS M445 SOPET M985 BCN N870 DIBER UN870 SOSUR DCT NOSTA DCT ASTIG
Aircraft A35K/H-SDE2E3GHIJ3J4J5LM1ORWXY/LB1D1

Departure

Time 2026-05-01 14:34
Airport Mohammed V International Airport (GMMN)

Arrival

Time N/A
Airport Milan Malpensa International Airport (LIMC)
Time Latitude Longitude Altitude Speed Heading
2026-05-01 14:30 33.36892 -7.58176 659 ft 12 kts 164°
2026-05-01 14:30 33.36797 -7.58168 659 ft 16 kts 178°
2026-05-01 14:30 33.36677 -7.58154 659 ft 19 kts 170°
2026-05-01 14:31 33.36379 -7.58081 659 ft 25 kts 175°
2026-05-01 14:31 33.36247 -7.58194 658 ft 25 kts 233°
2026-05-01 14:31 33.36088 -7.58200 658 ft 25 kts 163°
2026-05-01 14:31 33.35912 -7.58140 658 ft 28 kts 164°
2026-05-01 14:32 33.35717 -7.58074 658 ft 30 kts 164°
2026-05-01 14:32 33.35578 -7.58028 658 ft 32 kts 164°
2026-05-01 14:32 33.35322 -7.57945 658 ft 18 kts 179°
2026-05-01 14:32 33.35246 -7.58047 658 ft 19 kts 253°
2026-05-01 14:33 33.35223 -7.58209 660 ft 20 kts 288°
2026-05-01 14:33 33.35290 -7.58284 659 ft 21 kts 340°
2026-05-01 14:33 33.35352 -7.58306 658 ft 1 kts 344°
2026-05-01 14:33 33.35580 -7.58383 656 ft 74 kts 343°
2026-05-01 14:34 33.36018 -7.58535 655 ft 121 kts 343°
2026-05-01 14:34 33.37010 -7.58890 909 ft 158 kts 343°
2026-05-01 14:34 33.38040 -7.59291 1678 ft 161 kts 346°
2026-05-01 14:34 33.39104 -7.60016 2014 ft 203 kts 314°
2026-05-01 14:35 33.39966 -7.61529 2428 ft 230 kts 313°
2026-05-01 14:35 33.41327 -7.62451 3244 ft 233 kts 350°
2026-05-01 14:35 33.42932 -7.62158 4093 ft 240 kts 27°
2026-05-01 14:35 33.44479 -7.61238 4769 ft 259 kts 24°
2026-05-01 14:36 33.46174 -7.60384 5510 ft 274 kts 22°
2026-05-01 14:36 33.47997 -7.59512 6263 ft 289 kts 21°
2026-05-01 14:36 33.49870 -7.58595 7176 ft 294 kts 22°
2026-05-01 14:36 33.51774 -7.57621 8178 ft 299 kts 23°
2026-05-01 14:37 33.53706 -7.56598 9120 ft 306 kts 23°
2026-05-01 14:37 33.55640 -7.55552 10154 ft 309 kts 24°
2026-05-01 14:37 33.57650 -7.54449 10800 ft 327 kts 24°
2026-05-01 14:37 33.59800 -7.53265 11190 ft 351 kts 24°
2026-05-01 14:38 33.62066 -7.52018 11589 ft 373 kts 24°
2026-05-01 14:38 33.64496 -7.50680 12163 ft 387 kts 23°
2026-05-01 14:38 33.66942 -7.49332 13010 ft 392 kts 23°
2026-05-01 14:38 33.69432 -7.47958 13788 ft 397 kts 23°
2026-05-01 14:39 33.71963 -7.46560 14562 ft 401 kts 22°
2026-05-01 14:39 33.74501 -7.45160 15254 ft 407 kts 22°
2026-05-01 14:39 33.77104 -7.43724 15972 ft 411 kts 22°
2026-05-01 14:39 33.79722 -7.42278 16723 ft 416 kts 22°
2026-05-01 14:40 33.82343 -7.40831 17461 ft 421 kts 22°
2026-05-01 14:40 33.85039 -7.39341 18244 ft 425 kts 22°
2026-05-01 14:40 33.87715 -7.37862 18948 ft 430 kts 21°
2026-05-01 14:40 33.90454 -7.36346 19627 ft 434 kts 21°
2026-05-01 14:41 33.93202 -7.34824 20317 ft 438 kts 21°
2026-05-01 14:41 33.95998 -7.33274 21039 ft 442 kts 21°
2026-05-01 14:41 33.98814 -7.31713 21747 ft 447 kts 21°
2026-05-01 14:41 34.01637 -7.30147 22458 ft 452 kts 20°
2026-05-01 14:42 34.04526 -7.28543 23152 ft 457 kts 20°
2026-05-01 14:42 34.07395 -7.26949 23846 ft 462 kts 20°
2026-05-01 14:42 34.10331 -7.25316 24448 ft 467 kts 20°
2026-05-01 14:42 34.13302 -7.23662 25075 ft 471 kts 20°
2026-05-01 14:43 34.16273 -7.22006 25681 ft 475 kts 20°
2026-05-01 14:43 34.19292 -7.20322 26344 ft 478 kts 20°
2026-05-01 14:43 34.22331 -7.18625 26941 ft 482 kts 20°
2026-05-01 14:43 34.25364 -7.16931 27530 ft 486 kts 20°
2026-05-01 14:44 34.28447 -7.15208 28108 ft 491 kts 20°
2026-05-01 14:44 34.34710 -7.11705 29220 ft 501 kts 20°
2026-05-01 14:44 34.37871 -7.09933 29778 ft 505 kts 20°
2026-05-01 14:45 34.41096 -7.08124 30283 ft 509 kts 20°
2026-05-01 14:45 34.47549 -7.04499 31173 ft 516 kts 20°
2026-05-01 14:45 34.50823 -7.02658 31600 ft 520 kts 20°
2026-05-01 14:46 34.54123 -7.00800 32043 ft 523 kts 20°
2026-05-01 14:46 34.60759 -6.97057 33023 ft 524 kts 20°
2026-05-01 14:46 34.64031 -6.95207 33645 ft 522 kts 20°
2026-05-01 14:47 34.67330 -6.93341 34194 ft 521 kts 20°
2026-05-01 14:47 34.70615 -6.91482 34661 ft 520 kts 20°
2026-05-01 14:47 34.73856 -6.89648 35128 ft 518 kts 19°
2026-05-01 14:48 34.80405 -6.85937 36058 ft 516 kts 19°
2026-05-01 14:48 34.83636 -6.84105 36397 ft 517 kts 19°
2026-05-01 14:48 34.90107 -6.80428 37354 ft 511 kts 19°
2026-05-01 14:49 34.96533 -6.76772 38113 ft 510 kts 19°
2026-05-01 14:49 35.02958 -6.73110 38836 ft 508 kts 19°
2026-05-01 14:50 35.08278 -6.70073 39318 ft 508 kts 19°
2026-05-01 14:50 35.15755 -6.65799 39833 ft 509 kts 19°
2026-05-01 14:51 35.18961 -6.63962 40083 ft 509 kts 19°
2026-05-01 14:51 35.25361 -6.60291 40149 ft 508 kts 19°
2026-05-01 14:52 35.34968 -6.54769 40143 ft 509 kts 19°
2026-05-01 14:53 35.44124 -6.48138 40147 ft 522 kts 38°
2026-05-01 14:53 35.48839 -6.41232 40144 ft 530 kts 53°
2026-05-01 14:54 35.52748 -6.33554 40140 ft 532 kts 56°
2026-05-01 14:54 35.56522 -6.25753 40140 ft 532 kts 56°
2026-05-01 14:55 35.60352 -6.17995 40155 ft 532 kts 56°
2026-05-01 14:55 35.64229 -6.10264 40133 ft 533 kts 56°
2026-05-01 14:56 35.68136 -6.02491 40125 ft 533 kts 55°
2026-05-01 14:56 35.72011 -5.94761 40132 ft 532 kts 55°
2026-05-01 14:57 35.75482 -5.86719 40128 ft 534 kts 61°
2026-05-01 14:57 35.80362 -5.74338 40135 ft 535 kts 62°
2026-05-01 14:58 35.83574 -5.66096 40136 ft 535 kts 62°
2026-05-01 14:58 35.86854 -5.57897 40150 ft 534 kts 60°
2026-05-01 14:59 35.90194 -5.49699 40155 ft 534 kts 60°
2026-05-01 14:59 35.93507 -5.41527 40157 ft 534 kts 61°
2026-05-01 15:00 35.98465 -5.29207 40159 ft 535 kts 60°
2026-05-01 15:01 36.01773 -5.20990 40158 ft 535 kts 60°
2026-05-01 15:01 36.05191 -5.12835 40155 ft 534 kts 59°
2026-05-01 15:02 36.08640 -5.04677 40151 ft 534 kts 59°
2026-05-01 15:02 36.12057 -4.96530 40155 ft 534 kts 59°
2026-05-01 15:03 36.15839 -4.88697 40173 ft 528 kts 46°
2026-05-01 15:03 36.20721 -4.81952 40157 ft 526 kts 41°
2026-05-01 15:04 36.25773 -4.75434 40155 ft 526 kts 40°
2026-05-01 15:04 36.30874 -4.68900 40162 ft 526 kts 41°
2026-05-01 15:05 36.35936 -4.62370 40163 ft 526 kts 41°
2026-05-01 15:05 36.40996 -4.55803 40165 ft 526 kts 41°
2026-05-01 15:06 36.46049 -4.49226 40166 ft 526 kts 41°
2026-05-01 15:06 36.51097 -4.42643 40169 ft 527 kts 41°
2026-05-01 15:07 36.56150 -4.36043 40169 ft 527 kts 41°
2026-05-01 15:07 36.61184 -4.29454 40163 ft 527 kts 41°
2026-05-01 15:08 36.66242 -4.22819 40151 ft 527 kts 41°
2026-05-01 15:08 36.71254 -4.16232 40179 ft 528 kts 41°
2026-05-01 15:09 36.76331 -4.09546 40168 ft 528 kts 41°
2026-05-01 15:09 36.81348 -4.02923 40169 ft 528 kts 41°
2026-05-01 15:10 36.86417 -3.96218 40172 ft 528 kts 41°
2026-05-01 15:10 36.93946 -3.86244 40176 ft 529 kts 41°
2026-05-01 15:11 37.01507 -3.76185 40160 ft 528 kts 41°
2026-05-01 15:12 37.06514 -3.69508 40167 ft 527 kts 41°
2026-05-01 15:12 37.14062 -3.59475 40163 ft 526 kts 40°
2026-05-01 15:14 37.26817 -3.43073 40142 ft 524 kts 39°
2026-05-01 15:14 37.34355 -3.33289 40154 ft 518 kts 39°
2026-05-01 15:15 37.44385 -3.20219 40149 ft 518 kts 40°
2026-05-01 15:16 37.54356 -3.07178 40140 ft 516 kts 40°
2026-05-01 15:18 37.66721 -2.90932 40146 ft 512 kts 39°
2026-05-01 15:19 37.76532 -2.77988 40153 ft 511 kts 39°
2026-05-01 15:19 37.83895 -2.68242 40176 ft 512 kts 40°
2026-05-01 15:20 37.91264 -2.58434 40183 ft 510 kts 40°
2026-05-01 15:21 37.96137 -2.51939 40188 ft 510 kts 40°
2026-05-01 15:21 38.01014 -2.45437 40181 ft 510 kts 40°
2026-05-01 15:22 38.08358 -2.35611 40179 ft 510 kts 41°
2026-05-01 15:22 38.13228 -2.29055 40200 ft 510 kts 40°
2026-05-01 15:23 38.18075 -2.22545 40206 ft 509 kts 41°
2026-05-01 15:23 38.22748 -2.15734 40196 ft 512 kts 46°
2026-05-01 15:24 38.27176 -2.08663 40201 ft 513 kts 47°
2026-05-01 15:24 38.31577 -2.01527 40195 ft 512 kts 47°
2026-05-01 15:25 38.35985 -1.94360 40189 ft 513 kts 47°
2026-05-01 15:25 38.40376 -1.87223 40193 ft 512 kts 47°
2026-05-01 15:26 38.44772 -1.80064 40191 ft 512 kts 47°
2026-05-01 15:26 38.49148 -1.72926 40188 ft 512 kts 47°
2026-05-01 15:27 38.53540 -1.65747 40189 ft 512 kts 47°
2026-05-01 15:28 38.60093 -1.55004 40189 ft 512 kts 47°
2026-05-01 15:28 38.64460 -1.47826 40202 ft 511 kts 48°
2026-05-01 15:29 38.71001 -1.37044 40190 ft 510 kts 48°
2026-05-01 15:30 38.78958 -1.23893 40213 ft 510 kts 48°
2026-05-01 15:31 38.91939 -1.02302 40208 ft 509 kts 49°
2026-05-01 15:32 39.00582 -0.87851 40210 ft 509 kts 49°
2026-05-01 15:34 39.15110 -0.68415 40205 ft 500 kts 36°